Location: Warszawa
(52.2500°N, 21.0000°E)
Time: 14:53:49
(UTC+02:00)

Vanguard 2 - Pass Details

Date: 11 February 2023
Orbit: 553 x 2927 km, 32.9° (Epoch: 27 March)

Event Time Altitude Azimuth Distance (km) Brightness Sun altitude
Rises 19:53:13 0° 228° (SW) 4,486 11.8 -29.6°
Reaches altitude 10° 19:56:22 10° 216° (SW) 3,832 11.3 -30.1°
Enters shadow 20:04:51 29° 163° (SSE) 3,340 10.4 -31.3°
Maximum altitude 20:04:56 29° 162° (SSE) 3,346 - -31.3°
Drops below altitude 10° 20:16:50 10° 112° (ESE) 5,406 - -33.0°
Sets 20:22:20 0° 103° (ESE) 6,641 - -33.8°
